Time,TemperatureF,DewpointF,PressureIn,WindDirection,WindDirectionDegrees,WindSpeedMPH,WindSpeedGustMPH,Humidity,HourlyPrecipIn,Conditions,Clouds,dailyrainin,SoftwareType,DateUTC
2013-05-10 00:11:00,65.3,43.0,29.92,ENE,59,0.0,1.0,44,0.00,,,0.00,weatherlink.com 1.10,2013-05-10 04:11:00,
2013-05-10 00:26:00,65.4,43.0,29.92,ENE,59,0.0,1.0,44,0.00,,,0.00,weatherlink.com 1.10,2013-05-10 04:26:00,
2013-05-10 00:41:00,65.5,44.0,29.92,ENE,59,0.0,1.0,46,0.00,,,0.00,weatherlink.com 1.10,2013-05-10 04:41:00,
2013-05-10 00:56:00,65.6,44.0,29.92,ENE,59,0.0,0.0,46,0.00,,,0.00,weatherlink.com 1.10,2013-05-10 04:56:00,
2013-05-10 01:11:00,65.7,44.0,29.92,ENE,59,0.0,1.0,45,0.00,,,0.00,weatherlink.com 1.10,2013-05-10 05:11:00,
2013-05-10 01:26:00,65.8,44.0,29.91,ENE,59,0.0,1.0,46,0.00,,,0.00,weatherlink.com 1.10,2013-05-10 05:26:00,
2013-05-10 01:41:00,65.9,47.0,29.91,ENE,59,0.0,0.0,51,0.00,,,0.00,weatherlink.com 1.10,2013-05-10 05:41:00,
2013-05-10 01:56:00,66.1,48.0,29.90,NNW,348,0.0,0.0,53,0.00,,,0.00,weatherlink.com 1.10,2013-05-10 05:56:00,
2013-05-10 02:11:00,66.1,51.0,29.91,WNW,291,0.0,2.0,58,0.00,,,0.00,weatherlink.com 1.10,2013-05-10 06:11:00,
2013-05-10 02:26:00,66.0,51.0,29.91,SSE,158,0.0,2.0,59,0.00,,,0.00,weatherlink.com 1.10,2013-05-10 06:26:00,
2013-05-10 02:41:00,66.0,52.0,29.90,WNW,289,0.0,0.0,61,0.00,,,0.00,weatherlink.com 1.10,2013-05-10 06:41:00,
2013-05-10 02:56:00,65.9,53.0,29.89,WNW,289,0.0,0.0,63,0.00,,,0.00,weatherlink.com 1.10,2013-05-10 06:56:00,
2013-05-10 03:11:00,65.7,53.0,29.88,WNW,289,0.0,0.0,64,0.00,,,0.00,weatherlink.com 1.10,2013-05-10 07:11:00,
2013-05-10 03:26:00,65.4,54.0,29.88,WNW,289,0.0,0.0,66,0.00,,,0.00,weatherlink.com 1.10,2013-05-10 07:26:00,
2013-05-10 03:41:00,65.1,53.0,29.88,WNW,289,0.0,0.0,66,0.00,,,0.00,weatherlink.com 1.10,2013-05-10 07:41:00,
2013-05-10 03:56:00,64.8,54.0,29.87,WNW,289,0.0,0.0,67,0.00,,,0.00,weatherlink.com 1.10,2013-05-10 07:56:00,
2013-05-10 04:11:00,64.5,54.0,29.86,WNW,289,0.0,0.0,68,0.00,,,0.00,weatherlink.com 1.10,2013-05-10 08:11:00,
2013-05-10 04:26:00,64.4,55.0,29.85,East,85,0.0,3.0,72,0.00,,,0.00,weatherlink.com 1.10,2013-05-10 08:26:00,
2013-05-10 04:41:00,63.7,55.0,29.86,East,94,0.0,2.0,74,0.00,,,0.00,weatherlink.com 1.10,2013-05-10 08:41:00,
2013-05-10 04:56:00,63.2,56.0,29.87,South,188,0.0,2.0,78,0.00,,,0.00,weatherlink.com 1.10,2013-05-10 08:56:00,
2013-05-10 05:11:00,61.9,58.0,29.89,WSW,247,2.0,10.0,87,0.12,,,0.12,weatherlink.com 1.10,2013-05-10 09:11:00,
2013-05-10 05:26:00,61.1,58.0,29.88,SSW,200,0.0,4.0,89,0.17,,,0.17,weatherlink.com 1.10,2013-05-10 09:26:00,
2013-05-10 05:41:00,60.7,58.0,29.87,SSW,200,0.0,0.0,91,0.19,,,0.19,weatherlink.com 1.10,2013-05-10 09:41:00,
2013-05-10 05:56:00,60.6,58.0,29.87,SSW,200,0.0,1.0,91,0.19,,,0.19,weatherlink.com 1.10,2013-05-10 09:56:00,
2013-05-10 06:11:00,60.5,58.0,29.86,South,185,0.0,1.0,92,0.07,,,0.19,weatherlink.com 1.10,2013-05-10 10:11:00,
2013-05-10 06:26:00,60.5,59.0,29.86,South,185,0.0,1.0,93,0.02,,,0.19,weatherlink.com 1.10,2013-05-10 10:26:00,
2013-05-10 06:42:00,60.4,58.0,29.85,NNE,25,0.0,1.0,93,0.00,,,0.19,weatherlink.com 1.10,2013-05-10 10:42:00,
2013-05-10 06:57:00,60.4,58.0,29.85,NNE,25,0.0,0.0,93,0.00,,,0.19,weatherlink.com 1.10,2013-05-10 10:57:00,
2013-05-10 07:12:00,60.3,58.0,29.84,SE,141,0.0,0.0,93,0.00,,,0.19,weatherlink.com 1.10,2013-05-10 11:12:00,
2013-05-10 07:27:00,60.3,58.0,29.84,SE,133,0.0,1.0,93,0.00,,,0.19,weatherlink.com 1.10,2013-05-10 11:27:00,
2013-05-10 07:42:00,60.5,59.0,29.84,SE,133,0.0,1.0,94,0.00,,,0.19,weatherlink.com 1.10,2013-05-10 11:42:00,
2013-05-10 07:57:00,60.9,59.0,29.84,WSW,247,1.0,3.0,94,0.00,,,0.19,weatherlink.com 1.10,2013-05-10 11:57:00,
2013-05-10 08:12:00,61.6,60.0,29.84,SSW,212,0.0,4.0,93,0.00,,,0.19,weatherlink.com 1.10,2013-05-10 12:12:00,
2013-05-10 08:27:00,62.5,60.0,29.84,WSW,243,0.0,6.0,91,0.00,,,0.19,weatherlink.com 1.10,2013-05-10 12:27:00,
2013-05-10 08:42:00,63.5,61.0,29.84,NW,309,5.0,5.0,91,0.00,,,0.19,weatherlink.com 1.10,2013-05-10 12:42:00,
2013-05-10 08:57:00,64.5,61.0,29.84,SSE,151,2.0,2.0,88,0.00,,,0.19,weatherlink.com 1.10,2013-05-10 12:57:00,
2013-05-10 09:12:00,65.4,62.0,29.83,SW,214,0.0,5.0,87,0.00,,,0.19,weatherlink.com 1.10,2013-05-10 13:12:00,
2013-05-10 09:27:00,65.8,62.0,29.84,WSW,251,1.0,5.0,86,0.00,,,0.19,weatherlink.com 1.10,2013-05-10 13:27:00,
2013-05-10 09:42:00,66.1,62.0,29.84,NNE,26,2.0,4.0,85,0.00,,,0.19,weatherlink.com 1.10,2013-05-10 13:42:00,
2013-05-10 09:57:00,66.9,63.0,29.83,SE,142,0.0,5.0,86,0.00,,,0.19,weatherlink.com 1.10,2013-05-10 13:57:00,
2013-05-10 10:12:00,67.5,62.0,29.84,NW,325,1.0,4.0,83,0.00,,,0.19,weatherlink.com 1.10,2013-05-10 14:12:00,
2013-05-10 10:27:00,68.4,63.0,29.83,NNW,332,1.0,8.0,83,0.00,,,0.19,weatherlink.com 1.10,2013-05-10 14:27:00,
2013-05-10 10:42:00,69.4,63.0,29.82,East,93,3.0,7.0,81,0.00,,,0.19,weatherlink.com 1.10,2013-05-10 14:42:00,
2013-05-10 10:57:00,69.7,64.0,29.82,SW,224,2.0,5.0,81,0.00,,,0.19,weatherlink.com 1.10,2013-05-10 14:57:00,
2013-05-10 11:12:00,70.3,65.0,29.81,WNW,286,1.0,3.0,82,0.00,,,0.19,weatherlink.com 1.10,2013-05-10 15:12:00,
2013-05-10 11:27:00,70.9,64.0,29.81,WSW,241,2.0,5.0,78,0.00,,,0.19,weatherlink.com 1.10,2013-05-10 15:27:00,
2013-05-10 11:42:00,71.2,63.0,29.81,SE,130,1.0,7.0,76,0.00,,,0.19,weatherlink.com 1.10,2013-05-10 15:42:00,
2013-05-10 11:57:00,71.6,64.0,29.81,SSW,201,1.0,7.0,76,0.00,,,0.19,weatherlink.com 1.10,2013-05-10 15:57:00,
2013-05-10 12:12:00,72.4,64.0,29.80,WSW,252,7.0,9.0,74,0.00,,,0.19,weatherlink.com 1.10,2013-05-10 16:12:00,
2013-05-10 12:27:00,73.2,64.0,29.80,North,354,2.0,10.0,72,0.01,,,0.20,weatherlink.com 1.10,2013-05-10 16:27:00,
2013-05-10 12:42:00,73.6,64.0,29.80,West,262,1.0,4.0,73,0.01,,,0.20,weatherlink.com 1.10,2013-05-10 16:42:00,
2013-05-10 12:57:00,72.8,64.0,29.80,ESE,123,2.0,9.0,73,0.01,,,0.20,weatherlink.com 1.10,2013-05-10 16:57:00,
2013-05-10 13:12:00,72.5,64.0,29.80,SSW,193,1.0,3.0,75,0.01,,,0.20,weatherlink.com 1.10,2013-05-10 17:12:00,
2013-05-10 13:27:00,72.8,64.0,29.79,WSW,237,2.0,7.0,74,0.00,,,0.20,weatherlink.com 1.10,2013-05-10 17:27:00,
2013-05-10 13:42:00,72.7,63.0,29.78,West,266,0.0,11.0,71,0.00,,,0.20,weatherlink.com 1.10,2013-05-10 17:42:00,
2013-05-10 13:57:00,73.1,65.0,29.78,SSE,167,0.0,7.0,75,0.00,,,0.20,weatherlink.com 1.10,2013-05-10 17:57:00,
2013-05-10 14:12:00,72.9,63.0,29.78,SW,231,1.0,14.0,70,0.00,,,0.20,weatherlink.com 1.10,2013-05-10 18:12:00,
2013-05-10 14:27:00,73.0,64.0,29.77,SSE,158,0.0,7.0,74,0.00,,,0.20,weatherlink.com 1.10,2013-05-10 18:27:00,
2013-05-10 14:42:00,71.5,65.0,29.77,NW,308,0.0,2.0,81,0.04,,,0.24,weatherlink.com 1.10,2013-05-10 18:42:00,
2013-05-10 14:57:00,70.2,65.0,29.77,NNW,329,0.0,6.0,84,0.04,,,0.24,weatherlink.com 1.10,2013-05-10 18:57:00,
2013-05-10 15:12:00,70.1,66.0,29.76,West,271,0.0,8.0,86,0.04,,,0.24,weatherlink.com 1.10,2013-05-10 19:12:00,
2013-05-10 15:27:00,70.2,66.0,29.75,WSW,241,1.0,2.0,86,0.05,,,0.26,weatherlink.com 1.10,2013-05-10 19:27:00,
2013-05-10 15:42:00,68.8,65.0,29.76,SSW,209,4.0,6.0,87,0.11,,,0.35,weatherlink.com 1.10,2013-05-10 19:42:00,
2013-05-10 15:57:00,66.9,64.0,29.76,SW,224,1.0,4.0,89,0.17,,,0.41,weatherlink.com 1.10,2013-05-10 19:57:00,
2013-05-10 16:12:00,65.2,62.0,29.79,NNW,336,2.0,7.0,89,0.75,,,0.99,weatherlink.com 1.10,2013-05-10 20:12:00,
2013-05-10 16:27:00,63.0,60.0,29.79,WNW,287,0.0,11.0,89,0.75,,,1.01,weatherlink.com 1.10,2013-05-10 20:27:00,
2013-05-10 16:42:00,62.2,60.0,29.79,South,179,1.0,8.0,91,0.69,,,1.04,weatherlink.com 1.10,2013-05-10 20:42:00,
2013-05-10 16:57:00,61.8,60.0,29.79,SE,131,1.0,3.0,93,0.68,,,1.10,weatherlink.com 1.10,2013-05-10 20:57:00,
2013-05-10 17:12:00,61.9,60.0,29.78,South,170,0.0,3.0,94,0.12,,,1.11,weatherlink.com 1.10,2013-05-10 21:12:00,
2013-05-10 17:27:00,62.4,61.0,29.77,West,278,2.0,2.0,94,0.10,,,1.12,weatherlink.com 1.10,2013-05-10 21:27:00,
2013-05-10 17:42:00,62.6,61.0,29.76,WNW,288,0.0,2.0,94,0.09,,,1.13,weatherlink.com 1.10,2013-05-10 21:42:00,
2013-05-10 18:12:00,62.7,61.0,29.75,SW,217,0.0,6.0,93,0.02,,,1.13,weatherlink.com 1.10,2013-05-10 22:12:00,
2013-05-10 18:28:00,62.7,61.0,29.75,NW,322,0.0,2.0,94,0.01,,,1.13,weatherlink.com 1.10,2013-05-10 22:28:00,
2013-05-10 18:43:00,62.6,61.0,29.75,SE,125,0.0,1.0,94,0.01,,,1.14,weatherlink.com 1.10,2013-05-10 22:43:00,
2013-05-10 18:58:00,62.6,61.0,29.75,WNW,291,0.0,3.0,94,0.01,,,1.14,weatherlink.com 1.10,2013-05-10 22:58:00,
2013-05-10 19:13:00,62.4,60.0,29.75,WSW,251,0.0,2.0,93,0.02,,,1.15,weatherlink.com 1.10,2013-05-10 23:13:00,
2013-05-10 19:28:00,62.2,60.0,29.75,SSW,199,0.0,4.0,93,0.02,,,1.15,weatherlink.com 1.10,2013-05-10 23:28:00,
2013-05-10 19:43:00,62.1,60.0,29.75,West,260,0.0,1.0,94,0.01,,,1.15,weatherlink.com 1.10,2013-05-10 23:43:00,
2013-05-10 19:58:00,61.9,60.0,29.75,WSW,243,0.0,1.0,94,0.01,,,1.15,weatherlink.com 1.10,2013-05-10 23:58:00,
2013-05-10 20:13:00,61.7,60.0,29.75,North,4,0.0,1.0,94,0.00,,,1.15,weatherlink.com 1.10,2013-05-11 00:13:00,
2013-05-10 20:28:00,61.7,60.0,29.75,West,276,0.0,2.0,94,0.00,,,1.15,weatherlink.com 1.10,2013-05-11 00:28:00,
2013-05-10 20:43:00,61.6,60.0,29.74,West,279,0.0,3.0,95,0.00,,,1.15,weatherlink.com 1.10,2013-05-11 00:43:00,
2013-05-10 20:58:00,61.5,60.0,29.74,WSW,249,0.0,1.0,95,0.00,,,1.15,weatherlink.com 1.10,2013-05-11 00:58:00,
2013-05-10 21:13:00,61.4,60.0,29.74,West,280,0.0,3.0,95,0.00,,,1.15,weatherlink.com 1.10,2013-05-11 01:13:00,
2013-05-10 21:28:00,61.4,60.0,29.74,West,269,0.0,2.0,95,0.00,,,1.15,weatherlink.com 1.10,2013-05-11 01:28:00,
2013-05-10 21:43:00,61.3,60.0,29.75,West,274,0.0,1.0,95,0.00,,,1.15,weatherlink.com 1.10,2013-05-11 01:43:00,
2013-05-10 21:58:00,61.3,60.0,29.75,SSW,213,0.0,2.0,95,0.00,,,1.15,weatherlink.com 1.10,2013-05-11 01:58:00,
2013-05-10 22:13:00,61.3,60.0,29.75,NNW,335,0.0,2.0,95,0.00,,,1.15,weatherlink.com 1.10,2013-05-11 02:13:00,
2013-05-10 22:28:00,61.3,60.0,29.75,West,275,0.0,2.0,95,0.00,,,1.15,weatherlink.com 1.10,2013-05-11 02:28:00,
2013-05-10 22:43:00,61.4,60.0,29.75,West,275,0.0,1.0,95,0.00,,,1.15,weatherlink.com 1.10,2013-05-11 02:43:00,
2013-05-10 22:58:00,58.4,55.0,29.76,NNE,29,7.0,13.0,88,0.00,,,1.15,weatherlink.com 1.10,2013-05-11 02:58:00,
2013-05-10 23:13:00,55.2,53.0,29.78,WSW,238,4.0,9.0,91,0.00,,,1.15,weatherlink.com 1.10,2013-05-11 03:13:00,
2013-05-10 23:28:00,54.1,52.0,29.78,ENE,68,4.0,5.0,93,0.05,,,1.20,weatherlink.com 1.10,2013-05-11 03:28:00,
2013-05-10 23:43:00,53.4,52.0,29.78,NNE,16,1.0,7.0,94,0.06,,,1.21,weatherlink.com 1.10,2013-05-11 03:43:00,
2013-05-10 23:58:00,52.5,51.0,29.78,SSE,161,1.0,6.0,93,0.07,,,1.22,weatherlink.com 1.10,2013-05-11 03:58:00,